User: anonymous   Login
Location: Syracuse
(43.0480°N, 76.1480°W)
Time: 02:10:05
(UTC-04:00)
Language:

Cosmos 1140 Rocket - Orbit

View from above orbital plane
View from above orbital plane
View from above satellite
View from above satellite

Ground track
Ground track

The orbit data is extracted from the following two-line orbital elements,

1 11574U 79089B   15147.52439559  .00000163  00000-0  59467-4 0  9996
2 11574 074.0680 166.3320 0017250 263.3376 096.5816 14.40461801868906
Epoch (UTC): 27 May 2015 12:35:07
Eccentricity: 0.0017250
inclination: 74.0680°
perigee height: 744 km
apogee height: 769 km
right ascension of ascending node: 166.3320°
argument of perigee: 263.3376°
revolutions per day: 14.40461801
mean anomaly at epoch: 96.5816°
orbit number at epoch: 86890

The dashed part of the orbit path shows where the satellite is in the earth's shadow,  

DLR